[[{"header":{"parameterUnit":"m.s-1","parameterCategory":1,"la1":30.2991,"la2":30.254,"lo1":-89.0895,"lo2":-89.0444,"dy":0.0017,"dx":0.0017,"nx":28,"ny":28,"refTime":"2023-11-02T21:00:00:Z","depth":0,"parameterNumber":2,"parameterNumberName":"U-component_of_WINDS"},"data":[0,0,0,0,0,0,0,0,0,0,0,0,0,0,0,0,0,0,0,0,0,0,0,0,0,0,0,0,0,0,0,0,0,0,0,0,0,0,0,0,0,0,0,0,0,0,0,0,0,0,0,0,0,0,0,0,0,0,-3.146,-3.1461,0,-3.152,-3.1521,-3.1522,-3.1387,-3.1382,-3.1378,-3.1374,-3.1437,-3.1442,-3.1448,0,0,0,0,0,0,0,0,0,0,0,0,0,-3.123,-3.1235,-3.146,-3.1461,-3.1462,-3.152,-3.1521,-3.1522,-3.1387,-3.1382,-3.1377,-3.1372,-3.1435,-3.1442,-3.1449,0,0,0,0,0,0,0,0,0,0,0,0,0,-3.1314,-3.1237,-3.146,-3.1402,-3.1397,-3.152,-3.1521,-3.1522,-3.1388,-3.1382,-3.1375,-3.1369,-3.1433,-3.1441,-3.1449,-3.1632,0,0,-3.1476,-3.1479,0,0,0,0,0,0,0,0,-3.131,-3.1323,-3.1409,-3.1406,-3.1401,-3.1439,-3.1463,-3.1559,-3.139,-3.1392,-3.1374,-3.1366,-3.1443,-3.145,-3.1476,-3.1635,-3.1638,-3.1476,-3.1482,-3.1485,-3.1488,0,0,0,0,0,0,0,-3.1304,-3.132,-3.1484,-3.1411,-3.1406,-3.1373,-3.1378,-3.148,-3.1453,-3.1391,-3.1381,-3.139,-3.1439,-3.1468,-3.1476,-3.1639,-3.1476,-3.1484,-3.1489,-3.1492,-3.1953,-3.196,0,0,0,0,0,0,-3.1305,-3.1316,-3.1482,-3.1486,-3.1338,-3.1382,-3.1387,-3.1434,-3.1452,-3.1448,-3.1396,-3.1384,-3.1456,-3.1466,-3.1478,-3.1695,-3.1485,-3.1493,-3.1498,-3.1946,-3.1955,-3.1963,0,0,0,0,0,0,-3.1301,-3.1322,-3.1479,-3.1398,-3.1416,-3.1393,-3.1446,-3.1438,-3.1466,-3.1455,-3.145,-3.143,-3.1452,-3.1466,-3.1595,-3.1695,-3.1497,-3.1505,-3.1938,-3.1949,-3.1959,-3.213,0,0,0,0,0,0,-3.1295,-3.1321,-3.139,-3.1401,-3.1421,-3.1596,-3.1452,-3.1444,-3.1482,-3.1466,-3.1486,-3.1483,-3.1448,-3.1583,-3.1604,-3.1704,-3.1512,-3.1929,-3.1943,-3.1955,-3.2116,-3.2145,-3.2171,0,0,0,0,0,-3.1287,-3.1435,-3.1394,-3.1415,-3.1506,-3.1602,-3.1613,-3.157,-3.149,-3.156,-3.1552,-3.1482,-3.1681,-3.1598,-3.162,-3.1724,-3.1922,-3.1939,-3.1954,-3.2103,-3.214,-3.217,0,0,0,0,0,0,-3.1437,-3.1436,-3.139,-3.1546,-3.1575,-3.1579,-3.1665,-3.1609,-3.1662,-3.1646,-3.1589,-3.1595,-3.1736,-3.1742,-3.165,-3.1902,-3.1788,-3.1809,-3.1894,-3.1928,-3.1955,-3.1952,-3.1519,0,0,0,0,0,-3.1488,-3.1566,-3.156,-3.1699,-3.1716,-3.1689,-3.1728,-3.1692,-3.172,-3.1732,-3.1734,-3.1765,-3.1834,-3.1881,-3.1944,-3.2115,-3.2118,-3.2197,-3.2225,-3.2248,-3.2268,-3.236,-3.2396,-3.2015,-3.2015,-3.2015,0,0,-3.1595,-3.1604,-3.1656,-3.1729,-3.1747,-3.183,-3.17,-3.1792,-3.1853,-3.1746,-3.1869,-3.1872,-3.1902,-3.2054,-3.2121,-3.2064,-3.2373,-3.2268,-3.2286,-3.2294,-3.2381,-3.2417,-3.2449,-3.2026,-3.2024,-3.2022,0,0,-3.1832,-3.1846,-3.1963,-3.1985,-3.2014,-3.1995,-3.2024,-3.2036,-3.2034,-3.2156,-3.2079,-3.215,-3.227,-3.2295,-3.2324,-3.2572,-3.251,-3.2593,-3.2739,-3.283,-3.286,-3.2887,-3.2977,-3.301,-3.2613,-3.2613,-3.2613,0,-3.1961,-3.2082,-3.2031,-3.2129,-3.2164,-3.2071,-3.2191,-3.2213,-3.2263,-3.2289,-3.2224,-3.2374,-3.2387,-3.2545,-3.2605,-3.2631,-3.2663,-3.2592,-3.286,-3.2886,-3.291,-3.2996,-3.303,-3.2623,-3.2622,-3.2621,-3.262,0,-3.224,-3.2325,-3.2417,-3.2467,-3.2512,-3.262,-3.2587,-3.2638,-3.2598,-3.2587,-3.2713,-3.2726,-3.2791,-3.2825,-3.2786,-3.2978,-3.2941,-3.2869,-3.2754,-3.2957,-3.3037,-3.3069,-3.2638,-3.2634,-3.2631,-3.2629,0,0,-3.2575,-3.2595,-3.263,-3.2652,-3.2678,-3.2743,-3.2848,-3.2911,-3.2958,-3.2994,-3.3082,-3.3186,-3.3119,-3.3152,-3.3115,-3.3195,-3.3393,-3.3113,-3.3113,-3.3167,-3.3607,-3.3664,-3.3702,-3.3351,-3.3357,-3.3362,-3.3606,0,-3.2811,-3.2991,-3.2949,-3.3127,-3.3206,-3.3118,-3.3209,-3.3236,-3.3228,-3.3294,-3.3284,-3.336,-3.3265,-3.3285,-3.336,-3.3354,-3.3481,-3.3335,-3.3434,-3.3438,-3.3432,-3.3743,-3.3803,-3.4032,-3.3636,-3.3641,-3.3645,0,-3.3111,-3.316,-3.3347,-3.3361,-3.3392,-3.3475,-3.3531,-3.3594,-3.3623,-3.3611,-3.3648,-3.3596,-3.3701,-3.3583,-3.3727,-3.3628,-3.3666,-3.3669,-3.3677,-3.3687,-3.3556,-3.3764,-3.4104,-3.4139,-3.3693,-3.3689,-3.3686,0,-3.334,-3.3452,-3.3578,-3.36,-3.3619,-3.368,-3.3691,-3.3712,-3.3753,-3.3802,-3.3828,-3.3888,-3.3921,-3.3969,-3.3935,-3.3852,-3.4086,-3.3964,-3.4081,-3.4082,-3.4136,-3.4134,-3.4489,-3.4157,-3.4156,-3.4156,-3.4155,0,-3.361,-3.3728,-3.3681,-3.376,-3.389,-3.3839,-3.397,-3.397,-3.3991,-3.4068,-3.3995,-3.407,-3.4019,-3.4089,-3.4063,-3.4188,-3.4203,-3.4197,-3.419,-3.4206,-3.4207,-3.4231,-3.4215,-3.4165,-3.4163,-3.4161,-3.4159,0,-3.3888,-3.3861,-3.3994,-3.4001,-3.4006,-3.4102,-3.4108,-3.4181,-3.4167,-3.4266,-3.4287,-3.4265,-3.4344,-3.4315,-3.4399,-3.4381,-3.4541,-3.4511,-3.4532,-3.4525,-3.4644,-3.4635,-3.503,-3.5081,-3.4714,-3.4717,-3.472,0,-3.4063,-3.4152,-3.4169,-3.4216,-3.4232,-3.4308,-3.435,-3.4304,-3.435,-3.439,-3.4459,-3.4531,-3.4587,-3.4718,-3.471,-3.4775,-3.4747,-3.4881,-3.4756,-3.477,-3.4752,-3.4748,-3.4758,-3.4907,-3.4912,-3.4915,-3.4918,0,-3.4378,-3.4361,-3.4423,-3.4483,-3.4535,-3.4579,-3.4617,-3.466,-3.4615,-3.4672,-3.4752,-3.4795,-3.4881,-3.4955,-3.5013,-3.5024,-3.4966,-3.4957,-3.4988,-3.5006,-3.5016,-3.5015,-3.4603,-3.4949,-3.4946,-3.4943,-3.4942,-3.494,-3.4612,-3.4687,-3.4712,-3.4785,-3.4808,-3.4846,-3.4915,-3.491,-3.4976,-3.5043,-3.5011,-3.5105,-3.5131,-3.5203,-3.5223,-3.5295,-3.5243,-3.5287,-3.5299,-3.5311,-3.5328,-3.5002,-3.5305,-3.5304,-3.5304,-3.5303,-3.5302,0,-3.4925,-3.4936,-3.5004,-3.5059,-3.5118,-3.5055,-3.5094,-3.5147,-3.523,-3.526,-3.5316,-3.5409,-3.5481,-3.5479,-3.5545,-3.5604,-3.5579,-3.5623,-3.562,-3.5624,-3.5369,-3.5337,-3.5643,-3.5643,-3.5643,-3.5643,-3.5643,-3.5642,-3.5095,-3.5221,-3.5206,-3.5343,-3.5353,-3.5444,-3.5472,-3.5507,-3.553,-3.5637,-3.5696,-3.5694,-3.5712,-3.5779,-3.5842,-3.5839,-3.5868,-3.5924,-3.5912,-3.5675,-3.5641,-3.5609,-3.5579,-3.593,-3.593,-3.616,-3.6162,-3.6164]},{"header":{"parameterUnit":"m.s-1","parameterCategory":1,"la1":30.2991,"la2":30.254,"lo1":-89.0895,"lo2":-89.0444,"dy":0.0017,"dx":0.0017,"nx":28,"ny":28,"refTime":"2023-11-02T21:00:00:Z","depth":0,"parameterNumber":3,"parameterNumberName":"V-component_of_WINDS"},"data":[0,0,0,0,0,0,0,0,0,0,0,0,0,0,0,0,0,0,0,0,0,0,0,0,0,0,0,0,0,0,0,0,0,0,0,0,0,0,0,0,0,0,0,0,0,0,0,0,0,0,0,0,0,0,0,0,0,0,-2.4185,-2.4185,0,-2.4161,-2.416,-2.416,-2.4131,-2.413,-2.413,-2.413,-2.4104,-2.4103,-2.4103,0,0,0,0,0,0,0,0,0,0,0,0,0,-2.4205,-2.4205,-2.4185,-2.4185,-2.4185,-2.4161,-2.416,-2.416,-2.4131,-2.413,-2.413,-2.4129,-2.4104,-2.4103,-2.4103,0,0,0,0,0,0,0,0,0,0,0,0,0,-2.419,-2.4205,-2.4185,-2.4167,-2.4166,-2.4161,-2.416,-2.416,-2.4131,-2.413,-2.413,-2.4129,-2.4104,-2.4103,-2.4103,-2.4114,0,0,-2.4102,-2.4102,0,0,0,0,0,0,0,0,-2.4191,-2.419,-2.417,-2.4169,-2.4167,-2.4148,-2.4158,-2.4145,-2.4131,-2.4144,-2.413,-2.4129,-2.4119,-2.4117,-2.4114,-2.4113,-2.4112,-2.4102,-2.4102,-2.4101,-2.4101,0,0,0,0,0,0,0,-2.4192,-2.419,-2.4176,-2.417,-2.4168,-2.416,-2.4157,-2.4155,-2.4136,-2.4143,-2.4141,-2.4138,-2.4118,-2.4115,-2.4113,-2.4111,-2.4102,-2.4101,-2.4101,-2.4101,-2.4115,-2.4115,0,0,0,0,0,0,-2.4196,-2.4192,-2.4176,-2.4175,-2.4177,-2.416,-2.4157,-2.4155,-2.4136,-2.4132,-2.4139,-2.4137,-2.4116,-2.4114,-2.4112,-2.4122,-2.4101,-2.4101,-2.4101,-2.4114,-2.4115,-2.4116,0,0,0,0,0,0,-2.4197,-2.4195,-2.4177,-2.4183,-2.418,-2.416,-2.4158,-2.4155,-2.4151,-2.4132,-2.4129,-2.4139,-2.4115,-2.4113,-2.4113,-2.4121,-2.4101,-2.41,-2.4113,-2.4114,-2.4115,-2.4142,0,0,0,0,0,0,-2.4197,-2.4196,-2.42,-2.4183,-2.418,-2.4179,-2.4159,-2.4155,-2.4151,-2.4148,-2.4132,-2.4129,-2.4114,-2.4114,-2.4113,-2.412,-2.41,-2.4113,-2.4114,-2.4115,-2.4141,-2.4144,-2.4147,0,0,0,0,0,-2.4198,-2.4209,-2.42,-2.4199,-2.4185,-2.418,-2.4178,-2.4162,-2.4152,-2.4155,-2.4143,-2.4129,-2.412,-2.4114,-2.4113,-2.412,-2.4112,-2.4114,-2.4115,-2.4139,-2.4143,-2.4147,0,0,0,0,0,0,-2.4228,-2.4206,-2.4197,-2.4202,-2.4193,-2.4175,-2.4179,-2.4167,-2.416,-2.4158,-2.4138,-2.4134,-2.4136,-2.4128,-2.4122,-2.4128,-2.4114,-2.4115,-2.4133,-2.4137,-2.414,-2.4141,-2.41,0,0,0,0,0,-2.4235,-2.4233,-2.4215,-2.4221,-2.4217,-2.4199,-2.4196,-2.4184,-2.4174,-2.417,-2.4158,-2.4148,-2.4142,-2.4139,-2.4134,-2.414,-2.4135,-2.4143,-2.4147,-2.4149,-2.415,-2.4151,-2.4154,-2.412,-2.412,-2.412,0,0,-2.425,-2.4238,-2.4238,-2.4227,-2.4218,-2.4216,-2.4196,-2.4195,-2.4193,-2.417,-2.4169,-2.4159,-2.4147,-2.4149,-2.415,-2.4143,-2.4158,-2.4151,-2.4153,-2.4153,-2.4152,-2.4155,-2.4158,-2.4121,-2.4121,-2.4121,0,0,-2.4275,-2.4267,-2.427,-2.4262,-2.4249,-2.4237,-2.4237,-2.4221,-2.4214,-2.4213,-2.4195,-2.4191,-2.4183,-2.4174,-2.4169,-2.4189,-2.4175,-2.4188,-2.4204,-2.4204,-2.4207,-2.4209,-2.4215,-2.4217,-2.4189,-2.4189,-2.4189,0,-2.4294,-2.4291,-2.4274,-2.4273,-2.4268,-2.4247,-2.4249,-2.4242,-2.4228,-2.4225,-2.4217,-2.4204,-2.4195,-2.4194,-2.4199,-2.4196,-2.4195,-2.4189,-2.4208,-2.421,-2.4212,-2.4217,-2.4219,-2.419,-2.419,-2.419,-2.419,0,-2.4315,-2.4312,-2.4317,-2.4303,-2.4299,-2.43,-2.4282,-2.4279,-2.4267,-2.4256,-2.4254,-2.4241,-2.4231,-2.4231,-2.4219,-2.4228,-2.4223,-2.4212,-2.4198,-2.4217,-2.4221,-2.4223,-2.4193,-2.4192,-2.4192,-2.4191,0,0,-2.4358,-2.4334,-2.4336,-2.4328,-2.4312,-2.4309,-2.4309,-2.43,-2.4297,-2.4288,-2.4286,-2.4279,-2.4268,-2.4261,-2.4249,-2.425,-2.4264,-2.4238,-2.4237,-2.4242,-2.427,-2.4278,-2.428,-2.4255,-2.4255,-2.4256,-2.427,0,-2.4379,-2.4377,-2.4361,-2.4363,-2.436,-2.4339,-2.4338,-2.4328,-2.4317,-2.4311,-2.4299,-2.4293,-2.428,-2.4276,-2.4276,-2.4262,-2.4269,-2.4261,-2.4252,-2.4252,-2.4254,-2.4283,-2.4291,-2.4306,-2.4272,-2.4273,-2.4273,0,-2.4403,-2.4395,-2.4397,-2.4379,-2.4377,-2.4377,-2.4365,-2.4361,-2.4348,-2.434,-2.4332,-2.4318,-2.4315,-2.4302,-2.4296,-2.4291,-2.4286,-2.4279,-2.4279,-2.4277,-2.4263,-2.428,-2.431,-2.4312,-2.4276,-2.4275,-2.4275,0,-2.4432,-2.4422,-2.4421,-2.4416,-2.4395,-2.4395,-2.4386,-2.4373,-2.4367,-2.4358,-2.4354,-2.4344,-2.4338,-2.4331,-2.4313,-2.4306,-2.4309,-2.4295,-2.4301,-2.4301,-2.4302,-2.4302,-2.4331,-2.4301,-2.4301,-2.4301,-2.4301,0,-2.4457,-2.4458,-2.4433,-2.4433,-2.4433,-2.4414,-2.4415,-2.4405,-2.4392,-2.4388,-2.437,-2.4367,-2.4345,-2.4339,-2.4325,-2.4322,-2.432,-2.4312,-2.4308,-2.4313,-2.4314,-2.4309,-2.4307,-2.4302,-2.4302,-2.4301,-2.4301,0,-2.4489,-2.4472,-2.447,-2.4451,-2.4446,-2.4447,-2.443,-2.4428,-2.4415,-2.441,-2.4408,-2.4388,-2.438,-2.4362,-2.4349,-2.434,-2.4339,-2.4333,-2.4343,-2.434,-2.4347,-2.4346,-2.4372,-2.4374,-2.4345,-2.4345,-2.4345,0,-2.4505,-2.4505,-2.4486,-2.4482,-2.4474,-2.4468,-2.4462,-2.4443,-2.4438,-2.4422,-2.4422,-2.4412,-2.4403,-2.439,-2.4374,-2.4363,-2.4356,-2.4366,-2.4354,-2.4359,-2.4354,-2.4354,-2.4353,-2.4368,-2.4369,-2.4369,-2.437,0,-2.4534,-2.4526,-2.4518,-2.4508,-2.4502,-2.4492,-2.4482,-2.448,-2.4458,-2.4453,-2.4444,-2.4437,-2.4423,-2.4413,-2.4399,-2.439,-2.4375,-2.4373,-2.4374,-2.4378,-2.4383,-2.4379,-2.4349,-2.4373,-2.4372,-2.4372,-2.4372,-2.4372,-2.4557,-2.4556,-2.4542,-2.4534,-2.4524,-2.4515,-2.4511,-2.4498,-2.449,-2.4478,-2.4467,-2.4458,-2.4444,-2.4424,-2.4415,-2.4408,-2.4401,-2.4402,-2.4402,-2.4402,-2.4403,-2.4386,-2.4405,-2.4405,-2.4405,-2.4405,-2.4405,0,-2.4584,-2.4574,-2.4567,-2.4553,-2.4546,-2.4534,-2.4522,-2.4516,-2.4509,-2.4497,-2.4488,-2.4477,-2.4467,-2.445,-2.4438,-2.4435,-2.4428,-2.4432,-2.4431,-2.4429,-2.4411,-2.4411,-2.4438,-2.4438,-2.4438,-2.4438,-2.4438,-2.4438,-2.4598,-2.4594,-2.4584,-2.4576,-2.4565,-2.4557,-2.455,-2.4541,-2.4531,-2.4519,-2.4511,-2.45,-2.4485,-2.4471,-2.4461,-2.4456,-2.4451,-2.4457,-2.445,-2.4434,-2.443,-2.4428,-2.4427,-2.4457,-2.4457,-2.4469,-2.4469,-2.4469]}]]